DW9007 Weather Reports


Display with metric or nautical units.
time (UTC)temp
F
wind
direction
speed
MPH
gust
MPH
rain 1hr
in
rain 24hr
in
rain mn
in
humidity
%
barometer
mb
20260509211601 74 296 0.0 0.0 0.00 0.00 0.00 73 1009.8
20260509211502 74 296 0.0 0.0 0.00 0.00 0.00 73 1009.8
20260509210045 74 315 0.0 0.0 0.00 0.00 0.00 73 1009.9
20260509204541 75 315 0.0 0.0 0.00 0.00 0.00 76 1009.6
20260509203024 74 315 0.0 0.0 0.00 0.00 0.00 75 1010.1
20260509201520 74 317 0.0 0.0 0.00 0.00 0.00 76 1010.0
20260509200001 74 42 0.0 0.0 0.00 0.00 0.00 76 1009.9
20260509194559 74 11 0.0 0.0 0.00 0.00 0.00 78 1010.2
20260509193059 74 53 0.0 0.0 0.00 0.00 0.00 78 1010.3
20260509191537 73 263 0.0 0.0 0.00 0.00 0.00 79 1010.5
20260509190034 72 68 0.0 4.0 0.00 0.00 0.00 83 1010.6
20260509184518 71 319 0.0 3.0 0.00 0.00 0.00 84 1010.8
20260509183012 70 277 0.0 4.0 0.00 0.00 0.00 83 1011.1
20260509181551 69 348 1.0 5.0 0.00 0.00 0.00 85 1011.4
20260509180049 69 173 1.0 5.0 0.00 0.00 0.00 85 1011.6
20260509174534 68 261 0.0 2.0 0.00 0.00 0.00 87 1011.9
20260509173028 67 201 0.0 4.0 0.00 0.00 0.00 89 1011.8
20260509171506 66 200 1.0 6.0 0.00 0.00 0.00 88 1011.8
20260509170006 66 203 0.0 3.0 0.00 0.00 0.00 90 1011.7
20260509164547 66 318 1.0 6.0 0.00 0.00 0.00 91 1011.7
20260509163104 65 239 0.0 0.0 0.00 0.00 0.00 92 1012.1
20260509161528 64 216 0.0 1.0 0.00 0.00 0.00 93 1012.1
20260509160027 63 198 0.0 1.0 0.00 0.00 0.00 94 1012.1
20260509154508 63 246 0.0 1.0 0.00 0.00 0.00 94 1012.2
20260509153008 62 241 0.0 3.0 0.00 0.00 0.00 94 1012.3
20260509151554 62 337 0.0 5.0 0.00 0.00 0.00 95 1012.5
20260509150054 62 313 0.0 0.0 0.00 0.00 0.00 95 1012.2
20260509144531 62 244 0.0 1.0 0.00 0.00 0.00 95 1012.3
20260509143036 61 243 0.0 2.0 0.00 0.00 0.00 95 1012.5
20260509141528 61 241 0.0 1.0 0.00 0.00 0.00 95 1012.1
20260509140012 61 342 0.0 3.0 0.00 0.00 0.00 95 1012.4
20260509134557 61 255 0.0 3.0 0.00 0.00 0.00 95 1012.2
20260509133054 61 260 0.0 3.0 0.00 0.00 0.00 95 1011.9
20260509131539 61 261 0.0 2.0 0.00 0.00 0.00 95 1011.5
20260509130042 61 260 0.0 1.0 0.00 0.00 0.00 95 1011.4
20260509124517 61 260 0.0 1.0 0.00 0.00 0.00 95 1011.3
20260509123020 60 253 0.0 2.0 0.00 0.00 0.00 95 1011.4
20260509121505 60 195 0.0 1.0 0.00 0.00 0.00 96 1011.4
20260509120005 60 270 0.0 1.0 0.00 0.00 0.00 96 1011.2
20260509114505 60 249 0.0 2.0 0.00 0.00 0.00 96 1011.2
20260509113003 60 238 0.0 2.0 0.00 0.00 0.00 95 1011.2
20260509111503 60 235 0.0 1.0 0.00 0.00 0.00 95 1011.2
20260509110002 60 234 0.0 4.0 0.00 0.00 0.00 95 1011.2
20260509104506 60 181 1.0 5.0 0.00 0.00 0.00 95 1011.0
20260509103001 60 192 0.0 2.0 0.00 0.00 0.00 95 1010.3
20260509101544 60 327 0.0 0.0 0.00 0.00 0.00 95 1010.3
20260509094527 60 327 0.0 0.0 0.00 0.00 0.00 94 1010.0
20260509093022 60 327 0.0 0.0 0.00 0.00 0.00 94 1009.9
20260509091504 60 327 0.0 0.0 0.00 0.00 0.00 94 1010.2
20260509090004 60 187 0.0 1.0 0.00 0.00 0.00 94 1009.8
20260509084546 60 187 0.0 0.0 0.00 0.00 0.00 94 1009.7
20260509083046 60 187 0.0 4.0 0.00 0.00 0.00 94 1010.2
20260509081524 60 239 0.0 2.0 0.00 0.00 0.00 94 1011.1
20260509080023 59 237 0.0 6.0 0.00 0.00 0.00 94 1011.4
20260509074512 58 204 0.0 4.0 0.00 0.00 0.00 94 1011.2
20260509073011 58 237 0.0 2.0 0.00 0.00 0.00 94 1011.1
20260509071511 57 270 0.0 0.0 0.00 0.00 0.00 94 1010.9
20260509070010 56 271 0.0 0.0 0.00 0.00 0.00 94 1011.0
20260509064519 55 271 0.0 0.0 0.00 0.00 0.00 93 1010.8
20260509063008 55 271 0.0 0.0 0.00 0.00 0.00 93 1011.1
20260509061519 55 271 0.0 0.0 0.00 0.00 0.00 93 1010.6
20260509060007 55 271 0.0 0.0 0.00 0.00 0.00 93 1010.6
20260509054554 55 271 0.0 0.0 0.00 0.00 0.00 92 1011.2
20260509053057 55 271 0.0 0.0 0.00 0.00 0.00 92 1011.3
20260509051547 55 271 0.0 0.0 0.00 0.00 0.00 91 1011.3
20260509050040 55 271 0.0 0.0 0.00 0.00 0.00 91 1011.5
20260509044545 56 271 0.0 0.0 0.00 0.00 0.00 90 1011.8
20260509043037 56 271 0.0 0.0 0.00 0.00 0.00 90 1011.8
20260509041535 56 271 0.0 0.0 0.00 0.00 0.00 89 1011.8
20260509040037 57 271 0.0 0.0 0.00 0.00 0.00 88 1011.8
20260509034516 57 271 0.0 0.0 0.00 0.00 0.00 89 1011.7
20260509033014 57 271 0.0 0.0 0.00 0.00 0.00 88 1011.9
20260509031555 58 271 0.0 0.0 0.00 0.00 0.00 87 1011.8
20260509030056 58 271 0.0 0.0 0.00 0.00 0.00 86 1011.6
20260509024537 58 271 0.0 0.0 0.00 0.00 0.00 86 1011.5
20260509023035 58 271 0.0 0.0 0.00 0.00 0.00 86 1011.8
20260509021515 58 271 0.0 0.0 0.00 0.00 0.00 85 1012.1
20260509020014 59 271 0.0 0.0 0.00 0.00 0.00 85 1012.1
20260509014555 59 271 0.0 0.0 0.00 0.00 0.00 84 1011.9
20260509013054 60 271 0.0 0.0 0.00 0.00 0.00 82 1011.5
20260509011534 60 271 0.0 0.0 0.00 0.00 0.00 82 1011.9
20260509010031 61 271 0.0 0.0 0.00 0.00 0.00 81 1011.7
20260509004531 61 271 0.0 0.0 0.00 0.00 0.00 80 1011.8
20260509003017 62 271 0.0 0.0 0.00 0.00 0.00 79 1011.7
20260509001517 62 271 0.0 0.0 0.00 0.00 0.00 78 1011.9
20260509000013 62 271 0.0 0.0 0.00 0.00 0.00 78 1011.8
20260508234511 62 271 0.0 1.0 0.00 0.00 0.00 78 1012.2
20260508233009 62 5 0.0 0.0 0.00 0.00 0.00 78 1012.6
20260508231510 63 225 0.0 0.0 0.00 0.00 0.00 77 1012.9
20260508230006 63 225 0.0 2.0 0.00 0.00 0.00 76 1013.0
20260508224550 63 225 0.0 3.0 0.00 0.00 0.00 75 1013.0
20260508223047 63 225 0.0 1.0 0.00 0.00 0.00 75 1013.0
20260508221527 64 229 0.0 1.0 0.00 0.00 0.00 73 1013.0
20260508220031 64 232 0.0 0.0 0.00 0.00 0.00 74 1012.8
20260508214507 64 232 0.0 2.0 0.00 0.00 0.00 72 1012.7
20260508213004 64 230 0.0 0.0 0.00 0.00 0.00 71 1013.2